TimeEST,TemperatureF,Dew PointF,Humidity,Sea Level PressureIn,VisibilityMPH,Wind Direction,Wind SpeedMPH,Gust SpeedMPH,PrecipitationIn,Events,Conditions,WindDirDegrees,DateUTC
12:53 AM,55.9,50.0,80,29.89,9.0,South,5.8,-,0.00,,Overcast,170,2012-12-05 05:53:00
1:53 AM,55.9,50.0,80,29.88,8.0,SSE,5.8,-,0.00,,Overcast,150,2012-12-05 06:53:00
2:53 AM,52.0,50.0,93,29.89,4.0,West,3.5,-,0.00,,Overcast,270,2012-12-05 07:53:00
3:21 AM,51.8,48.2,88,29.90,6.0,SW,5.8,-,N/A,,Overcast,230,2012-12-05 08:21:00
3:53 AM,54.0,48.0,80,29.91,10.0,West,5.8,-,N/A,,Overcast,280,2012-12-05 08:53:00
4:53 AM,51.1,48.0,89,29.92,10.0,Calm,Calm,-,0.02,Rain,Light Rain,0,2012-12-05 09:53:00
5:53 AM,51.1,48.0,89,29.94,6.0,WNW,3.5,-,0.00,,Overcast,300,2012-12-05 10:53:00
6:27 AM,50.0,48.2,94,29.96,8.0,Calm,Calm,-,N/A,,Overcast,0,2012-12-05 11:27:00
6:53 AM,48.0,46.9,96,29.97,1.8,Calm,Calm,-,N/A,,Mostly Cloudy,0,2012-12-05 11:53:00
7:10 AM,48.2,44.6,87,29.98,0.5,Calm,Calm,-,N/A,Fog,Fog,0,2012-12-05 12:10:00
7:21 AM,46.4,44.6,93,29.98,1.8,Calm,Calm,-,N/A,,Mostly Cloudy,0,2012-12-05 12:21:00
7:26 AM,48.2,44.6,87,29.98,3.0,Calm,Calm,-,N/A,,Mostly Cloudy,0,2012-12-05 12:26:00
7:53 AM,50.0,39.0,66,29.99,10.0,West,6.9,-,N/A,,Partly Cloudy,280,2012-12-05 12:53:00
9:53 AM,50.0,34.0,54,30.01,10.0,West,11.5,21.9,N/A,,Clear,270,2012-12-05 14:53:00
10:53 AM,51.1,32.0,48,29.99,10.0,West,11.5,21.9,N/A,,Clear,280,2012-12-05 15:53:00
11:53 AM,53.1,30.0,41,29.99,10.0,WNW,12.7,24.2,N/A,,Clear,300,2012-12-05 16:53:00
12:53 PM,50.0,28.9,44,30.00,10.0,West,10.4,21.9,N/A,,Clear,270,2012-12-05 17:53:00
1:53 PM,50.0,30.0,46,30.01,10.0,WNW,16.1,-,N/A,,Mostly Cloudy,290,2012-12-05 18:53:00
2:53 PM,46.0,28.0,50,30.04,10.0,WNW,15.0,24.2,N/A,,Partly Cloudy,300,2012-12-05 19:53:00
3:53 PM,44.1,23.0,43,30.07,10.0,WNW,16.1,23.0,N/A,,Mostly Cloudy,300,2012-12-05 20:53:00
4:53 PM,42.1,21.9,45,30.11,10.0,WNW,12.7,20.7,N/A,,Overcast,300,2012-12-05 21:53:00
5:53 PM,41.0,21.0,45,30.14,10.0,NW,10.4,16.1,N/A,,Overcast,320,2012-12-05 22:53:00
6:53 PM,39.0,21.0,49,30.15,10.0,NNW,11.5,28.8,N/A,,Overcast,330,2012-12-05 23:53:00
7:53 PM,39.0,19.9,46,30.17,10.0,NNW,8.1,17.3,N/A,,Overcast,330,2012-12-06 00:53:00
8:53 PM,37.0,18.0,46,30.19,10.0,NNW,12.7,20.7,N/A,,Mostly Cloudy,330,2012-12-06 01:53:00
9:53 PM,36.0,18.0,48,30.20,10.0,NNW,6.9,-,N/A,,Overcast,330,2012-12-06 02:53:00
10:53 PM,35.1,17.1,48,30.22,10.0,NNW,10.4,19.6,N/A,,Overcast,340,2012-12-06 03:53:00
11:53 PM,33.1,19.0,56,30.25,10.0,North,9.2,-,N/A,,Scattered Clouds,10,2012-12-06 04:53:00